Time,TemperatureF,DewpointF,PressureIn,WindDirection,WindDirectionDegrees,WindSpeedMPH,WindSpeedGustMPH,Humidity,HourlyPrecipIn,Conditions,Clouds,dailyrainin,SoftwareType,DateUTC
2013-03-10 00:07:00,45.1,38.0,30.30,ENE,57,6.0,11.0,77,0.00,,,0.00,weatherlink.com 1.10,2013-03-10 05:07:00,
2013-03-10 00:22:00,45.1,38.0,30.30,NNE,29,8.0,14.0,75,0.00,,,0.00,weatherlink.com 1.10,2013-03-10 05:22:00,
2013-03-10 00:39:00,45.2,37.0,30.30,NNE,19,6.0,11.0,74,0.00,,,0.00,weatherlink.com 1.10,2013-03-10 05:39:00,
2013-03-10 00:52:00,45.1,37.0,30.29,NE,46,13.0,13.0,74,0.00,,,0.00,weatherlink.com 1.10,2013-03-10 05:52:00,
2013-03-10 01:07:00,45.1,37.0,30.30,NNE,18,14.0,14.0,74,0.00,,,0.00,weatherlink.com 1.10,2013-03-10 06:07:00,
2013-03-10 01:22:00,45.2,36.0,30.29,NNE,33,8.0,12.0,71,0.00,,,0.00,weatherlink.com 1.10,2013-03-10 06:22:00,
2013-03-10 01:37:00,45.1,36.0,30.29,NNE,30,8.0,14.0,71,0.00,,,0.00,weatherlink.com 1.10,2013-03-10 06:37:00,
2013-03-10 01:53:00,45.0,37.0,30.28,NNE,32,10.0,12.0,73,0.00,,,0.00,weatherlink.com 1.10,2013-03-10 06:53:00,
2013-03-10 03:08:00,44.9,37.0,30.29,NE,37,6.0,13.0,73,0.00,,,0.00,weatherlink.com 1.10,2013-03-10 07:08:00,
2013-03-10 03:23:00,44.7,37.0,30.28,NE,51,7.0,11.0,75,0.00,,,0.00,weatherlink.com 1.10,2013-03-10 07:23:00,
2013-03-10 03:38:00,44.6,37.0,30.28,NE,43,8.0,13.0,76,0.00,,,0.00,weatherlink.com 1.10,2013-03-10 07:38:00,
2013-03-10 03:53:00,44.3,38.0,30.27,NE,51,8.0,10.0,77,0.00,,,0.00,weatherlink.com 1.10,2013-03-10 07:53:00,
2013-03-10 04:08:00,44.1,38.0,30.27,NE,34,6.0,12.0,78,0.00,,,0.00,weatherlink.com 1.10,2013-03-10 08:08:00,
2013-03-10 04:23:00,44.1,38.0,30.27,NE,43,6.0,11.0,79,0.00,,,0.00,weatherlink.com 1.10,2013-03-10 08:23:00,
2013-03-10 04:38:00,44.1,38.0,30.27,NNE,25,6.0,12.0,80,0.00,,,0.00,weatherlink.com 1.10,2013-03-10 08:38:00,
2013-03-10 04:53:00,-999.0,-99.9,30.28,North,-999,-999.0,-999.0,-999,0.00,,,0.00,weatherlink.com 1.10,2013-03-10 08:53:00,
2013-03-10 05:08:00,-999.0,-99.9,30.28,North,-999,-999.0,-999.0,-999,0.00,,,0.00,weatherlink.com 1.10,2013-03-10 09:08:00,
2013-03-10 05:23:00,-999.0,-99.9,30.28,North,-999,-999.0,-999.0,-999,0.00,,,0.00,weatherlink.com 1.10,2013-03-10 09:23:00,
2013-03-10 05:38:00,-999.0,-99.9,30.28,North,-999,-999.0,-999.0,-999,0.00,,,0.00,weatherlink.com 1.10,2013-03-10 09:38:00,
2013-03-10 05:53:00,-999.0,-99.9,30.28,North,-999,-999.0,-999.0,-999,0.00,,,0.00,weatherlink.com 1.10,2013-03-10 09:53:00,
2013-03-10 06:08:00,-999.0,-99.9,30.28,North,-999,-999.0,-999.0,-999,0.00,,,0.00,weatherlink.com 1.10,2013-03-10 10:08:00,
2013-03-10 06:23:00,-999.0,-99.9,30.28,North,-999,-999.0,-999.0,-999,0.00,,,0.00,weatherlink.com 1.10,2013-03-10 10:23:00,
2013-03-10 06:38:00,-999.0,-99.9,30.29,North,-999,-999.0,-999.0,-999,0.00,,,0.00,weatherlink.com 1.10,2013-03-10 10:38:00,
2013-03-10 06:53:00,-999.0,-99.9,30.29,North,-999,-999.0,-999.0,-999,0.00,,,0.00,weatherlink.com 1.10,2013-03-10 10:53:00,
2013-03-10 07:08:00,-999.0,-99.9,30.29,North,-999,-999.0,-999.0,-999,0.00,,,0.00,weatherlink.com 1.10,2013-03-10 11:08:00,
2013-03-10 07:23:00,-999.0,-99.9,30.29,North,-999,-999.0,-999.0,-999,0.00,,,0.00,weatherlink.com 1.10,2013-03-10 11:23:00,
2013-03-10 07:38:00,43.8,40.0,30.29,NE,41,4.0,11.0,87,0.00,,,0.00,weatherlink.com 1.10,2013-03-10 11:38:00,
2013-03-10 07:53:00,44.3,41.0,30.29,NE,41,3.0,9.0,87,0.00,,,0.00,weatherlink.com 1.10,2013-03-10 11:53:00,
2013-03-10 08:08:00,44.8,41.0,30.30,NE,56,4.0,8.0,86,0.00,,,0.00,weatherlink.com 1.10,2013-03-10 12:08:00,
2013-03-10 08:23:00,45.3,41.0,30.30,NE,51,5.0,10.0,86,0.00,,,0.00,weatherlink.com 1.10,2013-03-10 12:23:00,
2013-03-10 08:38:00,45.8,42.0,30.30,NE,44,5.0,11.0,86,0.00,,,0.00,weatherlink.com 1.10,2013-03-10 12:38:00,
2013-03-10 08:53:00,46.3,42.0,30.30,NE,43,6.0,10.0,86,0.00,,,0.00,weatherlink.com 1.10,2013-03-10 12:53:00,
2013-03-10 09:08:00,46.8,43.0,30.31,NNE,30,7.0,11.0,85,0.00,,,0.00,weatherlink.com 1.10,2013-03-10 13:08:00,
2013-03-10 09:23:00,47.1,43.0,30.31,NNE,27,4.0,11.0,85,0.00,,,0.00,weatherlink.com 1.10,2013-03-10 13:23:00,
2013-03-10 09:38:00,47.3,43.0,30.32,NE,52,6.0,13.0,85,0.00,,,0.00,weatherlink.com 1.10,2013-03-10 13:38:00,
2013-03-10 09:54:00,48.7,44.0,30.31,ENE,63,6.0,10.0,83,0.00,,,0.00,weatherlink.com 1.10,2013-03-10 13:54:00,
2013-03-10 10:09:00,48.8,44.0,30.31,NE,56,10.0,12.0,82,0.00,,,0.00,weatherlink.com 1.10,2013-03-10 14:09:00,
2013-03-10 10:24:00,49.7,44.0,30.32,ENE,74,7.0,12.0,81,0.00,,,0.00,weatherlink.com 1.10,2013-03-10 14:24:00,
2013-03-10 10:39:00,49.0,43.0,30.32,NNE,18,11.0,13.0,81,0.00,,,0.00,weatherlink.com 1.10,2013-03-10 14:39:00,
2013-03-10 10:54:00,48.7,44.0,30.32,ENE,78,6.0,14.0,84,0.00,,,0.00,weatherlink.com 1.10,2013-03-10 14:54:00,
2013-03-10 11:09:00,48.8,44.0,30.32,NE,54,9.0,12.0,84,0.00,,,0.00,weatherlink.com 1.10,2013-03-10 15:09:00,
2013-03-10 11:24:00,48.3,44.0,30.32,NE,49,10.0,15.0,85,0.00,,,0.00,weatherlink.com 1.10,2013-03-10 15:24:00,
2013-03-10 11:39:00,49.1,45.0,30.33,ESE,106,6.0,14.0,85,0.00,,,0.00,weatherlink.com 1.10,2013-03-10 15:39:00,
2013-03-10 11:54:00,49.7,45.0,30.32,NE,47,6.0,14.0,83,0.00,,,0.00,weatherlink.com 1.10,2013-03-10 15:54:00,
2013-03-10 12:09:00,50.5,45.0,30.33,NNE,29,7.0,14.0,81,0.00,,,0.00,weatherlink.com 1.10,2013-03-10 16:09:00,
2013-03-10 12:24:00,50.1,45.0,30.32,NE,51,13.0,14.0,83,0.00,,,0.00,weatherlink.com 1.10,2013-03-10 16:24:00,
2013-03-10 12:39:00,50.8,46.0,30.33,SSE,156,4.0,15.0,83,0.00,,,0.00,weatherlink.com 1.10,2013-03-10 16:39:00,
2013-03-10 12:54:00,50.9,46.0,30.32,NNE,32,9.0,13.0,83,0.00,,,0.00,weatherlink.com 1.10,2013-03-10 16:54:00,
2013-03-10 13:09:00,51.0,46.0,30.32,NE,45,7.0,12.0,83,0.00,,,0.00,weatherlink.com 1.10,2013-03-10 17:09:00,
2013-03-10 13:24:00,51.3,47.0,30.32,NE,49,8.0,13.0,84,0.00,,,0.00,weatherlink.com 1.10,2013-03-10 17:24:00,
2013-03-10 13:39:00,51.4,47.0,30.31,NNE,22,8.0,12.0,84,0.00,,,0.00,weatherlink.com 1.10,2013-03-10 17:39:00,
2013-03-10 13:54:00,50.9,47.0,30.31,NE,55,7.0,15.0,85,0.00,,,0.00,weatherlink.com 1.10,2013-03-10 17:54:00,
2013-03-10 14:09:00,51.6,47.0,30.31,NE,47,10.0,13.0,84,0.00,,,0.00,weatherlink.com 1.10,2013-03-10 18:09:00,
2013-03-10 14:24:00,51.6,47.0,30.31,NE,49,6.0,13.0,84,0.00,,,0.00,weatherlink.com 1.10,2013-03-10 18:24:00,
2013-03-10 14:39:00,51.3,47.0,30.31,NE,39,9.0,12.0,85,0.00,,,0.00,weatherlink.com 1.10,2013-03-10 18:39:00,
2013-03-10 14:54:00,51.2,47.0,30.30,NE,41,4.0,11.0,86,0.00,,,0.00,weatherlink.com 1.10,2013-03-10 18:54:00,
2013-03-10 15:09:00,51.6,47.0,30.30,NE,44,11.0,12.0,84,0.00,,,0.00,weatherlink.com 1.10,2013-03-10 19:09:00,
2013-03-10 15:24:00,50.6,47.0,30.29,ENE,60,8.0,14.0,86,0.00,,,0.00,weatherlink.com 1.10,2013-03-10 19:24:00,
2013-03-10 15:39:00,51.8,48.0,30.29,NE,56,8.0,11.0,85,0.00,,,0.00,weatherlink.com 1.10,2013-03-10 19:39:00,
2013-03-10 15:54:00,52.0,47.0,30.29,NE,41,12.0,14.0,84,0.00,,,0.00,weatherlink.com 1.10,2013-03-10 19:54:00,
2013-03-10 16:09:00,52.5,48.0,30.29,NE,34,4.0,13.0,84,0.00,,,0.00,weatherlink.com 1.10,2013-03-10 20:09:00,
2013-03-10 16:24:00,52.1,47.0,30.29,NE,34,5.0,13.0,84,0.00,,,0.00,weatherlink.com 1.10,2013-03-10 20:24:00,
2013-03-10 16:39:00,51.9,48.0,30.29,NE,55,8.0,15.0,85,0.00,,,0.00,weatherlink.com 1.10,2013-03-10 20:39:00,
2013-03-10 16:54:00,52.2,48.0,30.29,NE,45,3.0,13.0,85,0.00,,,0.00,weatherlink.com 1.10,2013-03-10 20:54:00,
2013-03-10 17:09:00,52.4,48.0,30.29,NE,39,9.0,13.0,85,0.00,,,0.00,weatherlink.com 1.10,2013-03-10 21:09:00,
2013-03-10 17:24:00,52.7,48.0,30.29,NE,36,6.0,13.0,83,0.00,,,0.00,weatherlink.com 1.10,2013-03-10 21:24:00,
2013-03-10 17:39:00,52.6,48.0,30.29,ENE,57,10.0,13.0,84,0.00,,,0.00,weatherlink.com 1.10,2013-03-10 21:39:00,
2013-03-10 17:54:00,52.3,48.0,30.29,NE,46,7.0,11.0,84,0.00,,,0.00,weatherlink.com 1.10,2013-03-10 21:54:00,
2013-03-10 18:09:00,51.6,47.0,30.28,ENE,78,8.0,13.0,85,0.00,,,0.00,weatherlink.com 1.10,2013-03-10 22:09:00,
2013-03-10 18:24:00,50.9,47.0,30.29,ENE,57,4.0,11.0,87,0.00,,,0.00,weatherlink.com 1.10,2013-03-10 22:24:00,
2013-03-10 18:39:00,50.2,47.0,30.29,ENE,72,7.0,10.0,88,0.00,,,0.00,weatherlink.com 1.10,2013-03-10 22:39:00,
2013-03-10 18:54:00,49.6,47.0,30.30,NE,34,5.0,8.0,89,0.00,,,0.00,weatherlink.com 1.10,2013-03-10 22:54:00,
2013-03-10 19:09:00,49.1,46.0,30.30,NE,54,6.0,8.0,90,0.00,,,0.00,weatherlink.com 1.10,2013-03-10 23:09:00,
2013-03-10 19:24:00,48.8,46.0,30.30,NE,54,7.0,9.0,90,0.00,,,0.00,weatherlink.com 1.10,2013-03-10 23:24:00,
2013-03-10 19:39:00,48.6,46.0,30.30,NNE,20,8.0,8.0,90,0.00,,,0.00,weatherlink.com 1.10,2013-03-10 23:39:00,
2013-03-10 19:54:00,48.4,46.0,30.30,NE,37,8.0,9.0,91,0.00,,,0.00,weatherlink.com 1.10,2013-03-10 23:54:00,
2013-03-10 20:09:00,48.3,46.0,30.30,NNE,20,5.0,9.0,91,0.00,,,0.00,weatherlink.com 1.10,2013-03-11 00:09:00,
2013-03-10 20:24:00,48.2,46.0,30.30,NE,54,3.0,10.0,91,0.00,,,0.00,weatherlink.com 1.10,2013-03-11 00:24:00,
2013-03-10 20:39:00,48.0,46.0,30.30,NE,47,4.0,9.0,91,0.00,,,0.00,weatherlink.com 1.10,2013-03-11 00:39:00,
2013-03-10 20:54:00,47.9,46.0,30.30,NE,40,3.0,11.0,91,0.00,,,0.00,weatherlink.com 1.10,2013-03-11 00:54:00,
2013-03-10 21:09:00,47.7,45.0,30.30,NE,48,8.0,8.0,91,0.00,,,0.00,weatherlink.com 1.10,2013-03-11 01:09:00,
2013-03-10 21:24:00,47.7,45.0,30.29,NE,53,8.0,10.0,91,0.00,,,0.00,weatherlink.com 1.10,2013-03-11 01:24:00,
2013-03-10 21:39:00,47.9,46.0,30.29,NE,49,4.0,12.0,92,0.00,,,0.00,weatherlink.com 1.10,2013-03-11 01:39:00,
2013-03-10 21:54:00,48.2,46.0,30.29,NE,54,5.0,9.0,91,0.00,,,0.00,weatherlink.com 1.10,2013-03-11 01:54:00,
2013-03-10 22:09:00,48.3,46.0,30.30,ENE,65,6.0,7.0,91,0.00,,,0.00,weatherlink.com 1.10,2013-03-11 02:09:00,
2013-03-10 22:24:00,48.1,46.0,30.30,ENE,59,4.0,9.0,91,0.00,,,0.00,weatherlink.com 1.10,2013-03-11 02:24:00,
2013-03-10 22:39:00,48.0,46.0,30.30,ENE,60,7.0,9.0,92,0.00,,,0.00,weatherlink.com 1.10,2013-03-11 02:39:00,
2013-03-10 22:54:00,47.9,46.0,30.29,ENE,66,6.0,9.0,92,0.00,,,0.00,weatherlink.com 1.10,2013-03-11 02:54:00,
2013-03-10 23:09:00,48.0,46.0,30.29,ENE,60,5.0,8.0,92,0.00,,,0.00,weatherlink.com 1.10,2013-03-11 03:09:00,
2013-03-10 23:24:00,48.0,46.0,30.29,NE,49,5.0,9.0,92,0.00,,,0.00,weatherlink.com 1.10,2013-03-11 03:24:00,
2013-03-10 23:39:00,48.2,46.0,30.29,ENE,61,6.0,8.0,92,0.00,,,0.00,weatherlink.com 1.10,2013-03-11 03:39:00,
2013-03-10 23:54:00,48.3,46.0,30.29,ENE,66,6.0,9.0,92,0.00,,,0.00,weatherlink.com 1.10,2013-03-11 03:54:00,